Regional Weather Roundup
Issued by NWS Green Bay, WI

Home | Current Version | Previous Version | Graphics & Text | Print | Product List | Glossary Off
Versions: 1 2 3 4 5 6 7 8 9 10 11 12 13 14 15 16 17 18 19 20 21 22 23 24 25 26 27 28 29 30 31 32 33 34 35 36 37 38 39 40 41 42 43 44 45 46 47 48 49 50

000
ASUS43 KGRB 030810
RWRGRB

NORTH-CENTRAL AND NORTHEAST WISCONSIN REGIONAL WEATHER ROUNDUP
NATIONAL WEATHER SERVICE GREEN BAY WI
300 AM CDT SUN MAY 03 2015

WIZ005-009-010>012-018-019-030900-
NORTH CENTRAL WISCONSIN

CITY           SKY/WX    TMP DP  RH WIND       PRES   REMARKS
IRONWOOD       MOCLDY    63  48  59 SW10      29.72S
MANITOWISH WTR CLOUDY    60  49  68 SW10      29.79F
ARBOR VITAE    MOCLDY    59  50  70 S6        29.81S
EAGLE RIVER    MOCLDY    60  46  59 SW9       29.82S
LAND O LAKES   MOCLDY    58  46  65 SW5       29.82S
RHINELANDER    MOCLDY    60  48  64 SW12      29.84S
PHILLIPS       PTCLDY    60  49  69 SW9G16    29.80F
ANTIGO         CLEAR     55  46  74 SW8       29.86F
TOMAHAWK       PTCLDY    57  48  71 CALM      29.84S
MERRILL        CLEAR     59  49  70 SW7       29.84F
$$

WIZ013-073-030900-
NORTHEAST WISCONSIN

CITY           SKY/WX    TMP DP  RH WIND       PRES   REMARKS
IRON MOUNTAIN  CLEAR     61  44  53 SW6       29.81F
MARINETTE      CLEAR     57  43  58 SW7       29.85S
OCONTO         CLEAR     57  44  61 CALM      29.86S
$$

WIZ017-030-035>037-045-030900-
CENTRAL WISCONSIN

CITY           SKY/WX    TMP DP  RH WIND       PRES   REMARKS
MEDFORD        CLEAR     57  48  73 S10       29.83F
WAUSAU           N/A     58  49  72 SW6       29.84S
MOSINEE        CLEAR     54  46  76 S8        29.87S
MARSHFIELD     CLEAR     57  48  72 SW7       29.85F
WISC RAPIDS    CLEAR     56  47  71 SW7       29.88F
STEVENS POINT  CLEAR     54  45  71 SW5       29.87F
WAUPACA        CLEAR     55  43  63 S5        29.88F
SHAWANO        CLEAR     58  44  58 CALM      29.87S
CLINTONVILLE   CLEAR     54  43  66 S3        29.86F
$$

WIZ038-039-048-051-030900-
FOX VALLEY

CITY           SKY/WX    TMP DP  RH WIND       PRES   REMARKS
NWS GREEN BAY  CLEAR     55  45  68 S5        29.88F
APPLETON       CLEAR     59  43  55 SW10      29.89F
OSHKOSH        CLEAR     57  44  62 SW7       29.90R
FOND DU LAC    CLEAR     59  44  57 S8        29.91R
$$

WIZ022-050-052-030900-
EAST CENTRAL WISCONSIN

CITY           SKY/WX    TMP DP  RH WIND       PRES   REMARKS
STURGEON BAY   CLEAR     55  41  58 S7        29.89F
MANITOWOC      CLEAR     46  42  86 CALM      29.90S
SHEBOYGAN      CLEAR     52  41  66 SW3       29.91S
$$

LMZ563-521-522-541>543-030900-
LAKESHORE

STATION/POSITION TIME  TEMP    WIND        PRES    VSBY  WAVE
                       AIR SEA DIR/SP/G                  HT/PER
                 (UTC) (F)     (DEG/KT/KT) (MB)    (MI)  (FT/S)
SHEBOYGAN LKSHOR 0800   54     180/  6/  6 1013.1F
KEWAUNEE LKSHORE 0800   52     240/  5/  8 1011.2F
NORTHPORT PIER   0800   57     180/  3/  8 1010.8F
SISTER BAY LKSHO 0700   58     190/ 11/ 12   N/A
CHAMBERS ISLAND  0800   58     180/  5/  9 1011.2S
MENOMINEE LKSHOR 0800   61     210/  9/ 12 1011.4F
$$


USA.gov is the U.S. government's official web portal to all federal, state and local government web resources and services.